ETH694 HAAB-OPKC

Flight info

Callsign ETH694
Flight time 4h 36m
Altitude 35000
Route NIDEG3B NIDEG UB535 TORBA T701 ULALI L702 TATNA/N0462F370 L702 NODMA B400 DAXAM Y414 DEDSO R401 HAI B400 GEPOT G652 SODEB G216 LAKIV
Aircraft B738/M-SDE2E3FGHIRWXY/LB1

Departure

Time 2026-05-06 05:23
Airport Addis Ababa Bole International Airport (HAAB)

Arrival

Time 2026-05-06 09:59
Airport Jinnah International Airport (OPKC)
Time Latitude Longitude Altitude Speed Heading
2026-05-06 04:36 8.98165 38.79426 7620 ft 0 kts 343°
2026-05-06 05:07 8.98158 38.79428 7620 ft 4 kts 343°
2026-05-06 05:07 8.98132 38.79436 7620 ft 4 kts 342°
2026-05-06 05:08 8.98106 38.79444 7620 ft 4 kts 345°
2026-05-06 05:08 8.98080 38.79449 7620 ft 4 kts 358°
2026-05-06 05:08 8.98058 38.79445 7620 ft 4 kts 55°
2026-05-06 05:08 8.98055 38.79441 7620 ft 0 kts 73°
2026-05-06 05:13 8.98057 38.79446 7620 ft 2 kts 73°
2026-05-06 05:13 8.98063 38.79468 7620 ft 5 kts 73°
2026-05-06 05:14 8.98076 38.79510 7620 ft 7 kts 73°
2026-05-06 05:14 8.98092 38.79566 7620 ft 9 kts 73°
2026-05-06 05:14 8.98117 38.79632 7622 ft 10 kts 50°
2026-05-06 05:14 8.98168 38.79676 7622 ft 10 kts 50°
2026-05-06 05:15 8.98182 38.79729 7620 ft 7 kts 103°
2026-05-06 05:15 8.98145 38.79760 7620 ft 7 kts 163°
2026-05-06 05:15 8.98097 38.79772 7620 ft 7 kts 165°
2026-05-06 05:15 8.98046 38.79786 7623 ft 8 kts 165°
2026-05-06 05:16 8.97989 38.79801 7620 ft 9 kts 165°
2026-05-06 05:16 8.97926 38.79818 7623 ft 10 kts 165°
2026-05-06 05:16 8.97859 38.79838 7624 ft 10 kts 163°
2026-05-06 05:16 8.97787 38.79857 7624 ft 11 kts 166°
2026-05-06 05:17 8.97720 38.79882 7620 ft 10 kts 140°
2026-05-06 05:17 8.97698 38.79946 7621 ft 10 kts 79°
2026-05-06 05:17 8.97717 38.80013 7622 ft 10 kts 74°
2026-05-06 05:17 8.97737 38.80079 7625 ft 10 kts 73°
2026-05-06 05:18 8.97757 38.80149 7622 ft 11 kts 73°
2026-05-06 05:18 8.97781 38.80234 7622 ft 14 kts 73°
2026-05-06 05:18 8.97811 38.80331 7625 ft 15 kts 73°
2026-05-06 05:18 8.97843 38.80437 7622 ft 17 kts 73°
2026-05-06 05:19 8.97876 38.80554 7621 ft 18 kts 74°
2026-05-06 05:19 8.97912 38.80679 7622 ft 18 kts 73°
2026-05-06 05:19 8.97949 38.80802 7620 ft 19 kts 72°
2026-05-06 05:19 8.97988 38.80936 7618 ft 21 kts 73°
2026-05-06 05:20 8.98032 38.81083 7618 ft 22 kts 73°
2026-05-06 05:20 8.98070 38.81213 7618 ft 18 kts 76°
2026-05-06 05:20 8.98104 38.81333 7619 ft 17 kts 72°
2026-05-06 05:20 8.98141 38.81455 7620 ft 18 kts 75°
2026-05-06 05:21 8.98180 38.81557 7621 ft 13 kts 47°
2026-05-06 05:21 8.98228 38.81570 7621 ft 6 kts 345°
2026-05-06 05:21 8.98257 38.81542 7600 ft 7 kts 307°
2026-05-06 05:21 8.98291 38.81496 7620 ft 10 kts 307°
2026-05-06 05:22 8.98328 38.81437 7620 ft 9 kts 291°
2026-05-06 05:22 8.98322 38.81395 7625 ft 0 kts 253°
2026-05-06 05:22 8.98319 38.81384 7622 ft 5 kts 253°
2026-05-06 05:22 8.98272 38.81217 7620 ft 57 kts 253°
2026-05-06 05:23 8.98094 38.80614 7620 ft 121 kts 253°
2026-05-06 05:23 8.97801 38.79608 7619 ft 175 kts 253°
2026-05-06 05:23 8.96918 38.76928 8521 ft 207 kts 230°
2026-05-06 05:24 8.95761 38.76137 9274 ft 205 kts 185°
2026-05-06 05:24 8.94438 38.76365 10062 ft 190 kts 143°
2026-05-06 05:24 8.93498 38.77272 10696 ft 187 kts 116°
2026-05-06 05:24 8.93032 38.78489 11321 ft 185 kts 103°
2026-05-06 05:25 8.92711 38.79760 11881 ft 188 kts 102°
2026-05-06 05:25 8.92395 38.81052 12405 ft 191 kts 102°
2026-05-06 05:25 8.92070 38.82362 12924 ft 193 kts 102°
2026-05-06 05:25 8.91738 38.83684 13405 ft 195 kts 102°
2026-05-06 05:26 8.91404 38.85002 13882 ft 196 kts 102°
2026-05-06 05:26 8.91061 38.86362 14351 ft 198 kts 102°
2026-05-06 05:26 8.91007 38.87725 14714 ft 198 kts 77°
2026-05-06 05:26 8.91364 38.89078 15116 ft 201 kts 74°
2026-05-06 05:27 8.91740 38.90445 15504 ft 202 kts 75°
2026-05-06 05:27 8.92116 38.91817 15889 ft 203 kts 75°
2026-05-06 05:27 8.92494 38.93202 16255 ft 205 kts 75°
2026-05-06 05:27 8.92874 38.94599 16623 ft 207 kts 75°
2026-05-06 05:28 8.93266 38.96044 16793 ft 221 kts 75°
2026-05-06 05:28 8.93685 38.97596 16901 ft 237 kts 75°
2026-05-06 05:28 8.94136 38.99263 17008 ft 255 kts 75°
2026-05-06 05:28 8.94622 39.01063 17114 ft 276 kts 75°
2026-05-06 05:29 8.95145 39.03002 17271 ft 296 kts 75°
2026-05-06 05:29 8.95704 39.05075 17420 ft 316 kts 75°
2026-05-06 05:29 8.96299 39.07281 17554 ft 334 kts 75°
2026-05-06 05:29 8.96920 39.09584 17675 ft 352 kts 75°
2026-05-06 05:30 8.97579 39.12028 17783 ft 369 kts 74°
2026-05-06 05:30 8.98267 39.14583 17929 ft 382 kts 74°
2026-05-06 05:30 8.98972 39.17203 18328 ft 388 kts 74°
2026-05-06 05:30 8.99683 39.19842 18819 ft 390 kts 74°
2026-05-06 05:31 9.00397 39.22498 19232 ft 393 kts 74°
2026-05-06 05:31 9.01118 39.25177 19629 ft 396 kts 74°
2026-05-06 05:31 9.01845 39.27883 20029 ft 399 kts 74°
2026-05-06 05:31 9.02576 39.30601 20437 ft 402 kts 74°
2026-05-06 05:32 9.03312 39.33339 20851 ft 405 kts 74°
2026-05-06 05:32 9.04053 39.36100 21248 ft 408 kts 74°
2026-05-06 05:32 9.04799 39.38879 21617 ft 411 kts 74°
2026-05-06 05:32 9.05553 39.41685 21981 ft 414 kts 74°
2026-05-06 05:33 9.06381 39.44480 22341 ft 416 kts 67°
2026-05-06 05:33 9.07812 39.47031 22698 ft 418 kts 56°
2026-05-06 05:33 9.09435 39.49437 23061 ft 420 kts 55°
2026-05-06 05:33 9.11104 39.51870 23406 ft 423 kts 55°
2026-05-06 05:34 9.12785 39.54325 23738 ft 426 kts 55°
2026-05-06 05:34 9.14467 39.56801 24064 ft 427 kts 56°
2026-05-06 05:34 9.16142 39.59286 24333 ft 429 kts 56°
2026-05-06 05:34 9.17819 39.61791 24649 ft 429 kts 56°
2026-05-06 05:35 9.19493 39.64300 24893 ft 433 kts 56°
2026-05-06 05:35 9.21182 39.66840 25152 ft 435 kts 56°
2026-05-06 05:35 9.22869 39.69378 25468 ft 436 kts 56°
2026-05-06 05:35 9.24566 39.71932 25638 ft 440 kts 56°
2026-05-06 05:36 9.26277 39.74507 25941 ft 440 kts 56°
2026-05-06 05:36 9.27990 39.77086 26191 ft 443 kts 56°
2026-05-06 05:36 9.29716 39.79684 26393 ft 446 kts 56°
2026-05-06 05:36 9.31454 39.82300 26623 ft 448 kts 56°
2026-05-06 05:37 9.33191 39.84916 26932 ft 448 kts 56°
2026-05-06 05:37 9.34937 39.87546 27113 ft 452 kts 56°
2026-05-06 05:37 9.36698 39.90198 27321 ft 454 kts 56°
2026-05-06 05:37 9.38460 39.92853 27568 ft 455 kts 56°
2026-05-06 05:38 9.40232 39.95523 27787 ft 457 kts 56°
2026-05-06 05:38 9.42011 39.98205 27964 ft 460 kts 56°
2026-05-06 05:38 9.43775 40.00864 28170 ft 462 kts 56°
2026-05-06 05:38 9.45569 40.03570 28391 ft 463 kts 56°
2026-05-06 05:39 9.47368 40.06283 28610 ft 465 kts 56°
2026-05-06 05:39 9.49171 40.09003 28818 ft 466 kts 56°
2026-05-06 05:39 9.50982 40.11737 29004 ft 468 kts 56°
2026-05-06 05:39 9.52803 40.14485 29174 ft 470 kts 56°
2026-05-06 05:40 9.54629 40.17243 29351 ft 472 kts 56°
2026-05-06 05:40 9.56464 40.20013 29565 ft 473 kts 56°
2026-05-06 05:40 9.58298 40.22784 29740 ft 475 kts 56°
2026-05-06 05:40 9.60142 40.25570 29930 ft 476 kts 56°
2026-05-06 05:41 9.61986 40.28356 30192 ft 475 kts 56°
2026-05-06 05:41 9.63819 40.31128 30501 ft 473 kts 56°
2026-05-06 05:41 9.65647 40.33892 30763 ft 472 kts 56°
2026-05-06 05:41 9.67513 40.36629 30978 ft 472 kts 51°
2026-05-06 05:42 9.69599 40.39151 31179 ft 472 kts 47°
2026-05-06 05:42 9.71822 40.41589 31422 ft 471 kts 46°
2026-05-06 05:42 9.74088 40.43989 31691 ft 470 kts 45°
2026-05-06 05:42 9.76347 40.46376 31938 ft 470 kts 46°
2026-05-06 05:43 9.78598 40.48782 32176 ft 470 kts 46°
2026-05-06 05:43 9.80827 40.51195 32429 ft 469 kts 46°
2026-05-06 05:43 9.83043 40.53620 32682 ft 469 kts 46°
2026-05-06 05:43 9.85252 40.56054 32937 ft 468 kts 46°
2026-05-06 05:44 9.87453 40.58487 33190 ft 468 kts 47°
2026-05-06 05:44 9.89650 40.60920 33442 ft 468 kts 47°
2026-05-06 05:44 9.91848 40.63354 33710 ft 467 kts 47°
2026-05-06 05:44 9.94041 40.65783 33958 ft 467 kts 47°
2026-05-06 05:45 9.96234 40.68211 34169 ft 467 kts 46°
2026-05-06 05:45 9.98426 40.70637 34391 ft 466 kts 46°
2026-05-06 05:45 10.00615 40.73060 34607 ft 466 kts 46°
2026-05-06 05:45 10.02802 40.75481 34803 ft 466 kts 47°
2026-05-06 05:46 10.04988 40.77902 34946 ft 465 kts 47°
2026-05-06 05:46 10.07182 40.80332 34934 ft 468 kts 47°
2026-05-06 05:46 10.11572 40.85195 34943 ft 466 kts 47°
2026-05-06 05:47 10.15947 40.90044 34939 ft 465 kts 47°
2026-05-06 05:47 10.20307 40.94879 34936 ft 463 kts 46°
2026-05-06 05:48 10.24655 40.99702 34937 ft 463 kts 47°
2026-05-06 05:48 10.29001 41.04526 34939 ft 462 kts 47°
2026-05-06 05:49 10.33309 41.09309 34940 ft 463 kts 47°
2026-05-06 05:49 10.37655 41.14136 34934 ft 464 kts 47°
2026-05-06 05:50 10.42007 41.18974 34936 ft 464 kts 47°
2026-05-06 05:50 10.46368 41.23823 34933 ft 465 kts 47°
2026-05-06 05:51 10.50737 41.28683 34934 ft 466 kts 47°
2026-05-06 05:51 10.55119 41.33560 34932 ft 467 kts 47°
2026-05-06 05:52 10.59470 41.38405 34935 ft 467 kts 47°
2026-05-06 05:52 10.63305 41.43718 34943 ft 467 kts 59°
2026-05-06 05:53 10.66471 41.49493 34936 ft 468 kts 61°
2026-05-06 05:53 10.69624 41.55288 34932 ft 468 kts 60°
2026-05-06 05:54 10.72840 41.61034 34928 ft 468 kts 59°
2026-05-06 05:54 10.76087 41.66760 34924 ft 467 kts 59°
2026-05-06 05:55 10.79335 41.72480 34926 ft 467 kts 59°
2026-05-06 05:55 10.82575 41.78194 34921 ft 466 kts 59°
2026-05-06 05:56 10.85809 41.83906 34920 ft 466 kts 59°
2026-05-06 05:56 10.89038 41.89613 34918 ft 465 kts 59°
2026-05-06 05:57 10.92243 41.95280 34918 ft 465 kts 59°
2026-05-06 05:57 10.95488 42.01021 34917 ft 465 kts 60°
2026-05-06 05:58 10.98687 42.06685 34914 ft 465 kts 60°
2026-05-06 05:58 11.01909 42.12392 34916 ft 465 kts 60°
2026-05-06 05:59 11.05118 42.18096 34915 ft 465 kts 60°
2026-05-06 05:59 11.08271 42.23845 34914 ft 465 kts 60°
2026-05-06 06:00 11.11413 42.29610 34914 ft 465 kts 60°
2026-05-06 06:00 11.14537 42.35334 34915 ft 465 kts 60°
2026-05-06 06:01 11.17687 42.41097 34923 ft 465 kts 60°
2026-05-06 06:01 11.20838 42.46860 34926 ft 466 kts 61°
2026-05-06 06:02 11.23989 42.52628 34920 ft 466 kts 61°
2026-05-06 06:02 11.27133 42.58388 34916 ft 466 kts 61°
2026-05-06 06:03 11.30285 42.64164 34915 ft 466 kts 61°
2026-05-06 06:03 11.33433 42.69937 34913 ft 465 kts 61°
2026-05-06 06:04 11.36559 42.75672 34915 ft 465 kts 61°
2026-05-06 06:04 11.39697 42.81434 34910 ft 465 kts 61°
2026-05-06 06:05 11.42831 42.87193 34910 ft 465 kts 61°
2026-05-06 06:05 11.45436 42.91981 34903 ft 464 kts 61°
2026-05-06 06:06 11.48567 42.97740 34897 ft 464 kts 61°
2026-05-06 06:06 11.51699 43.03504 34894 ft 464 kts 61°
2026-05-06 06:07 11.54832 43.09262 34894 ft 464 kts 60°
2026-05-06 06:07 11.58329 43.14810 34893 ft 465 kts 56°
2026-05-06 06:08 11.62002 43.20236 34884 ft 465 kts 56°
2026-05-06 06:08 11.65627 43.25642 34886 ft 465 kts 56°
2026-05-06 06:09 11.69248 43.31113 34886 ft 465 kts 56°
2026-05-06 06:09 11.72856 43.36591 34886 ft 465 kts 56°
2026-05-06 06:10 11.76467 43.42074 34883 ft 465 kts 56°
2026-05-06 06:10 11.80079 43.47559 34881 ft 465 kts 56°
2026-05-06 06:11 11.83690 43.53045 34881 ft 465 kts 56°
2026-05-06 06:11 11.87301 43.58534 34881 ft 465 kts 56°
2026-05-06 06:12 11.90945 43.63990 34882 ft 465 kts 56°
2026-05-06 06:12 11.94645 43.69422 34880 ft 465 kts 56°
2026-05-06 06:13 11.98310 43.74813 34884 ft 465 kts 56°
2026-05-06 06:13 12.01996 43.80255 34879 ft 465 kts 56°
2026-05-06 06:14 12.05670 43.85689 34879 ft 465 kts 56°
2026-05-06 06:14 12.09344 43.91124 34879 ft 465 kts 56°
2026-05-06 06:15 12.13013 43.96555 34880 ft 464 kts 56°
2026-05-06 06:15 12.16417 44.02156 34872 ft 463 kts 67°
2026-05-06 06:16 12.18147 44.08419 34873 ft 462 kts 84°
2026-05-06 06:16 12.18597 44.14968 34876 ft 462 kts 87°
2026-05-06 06:17 12.18961 44.21518 34876 ft 462 kts 87°
2026-05-06 06:17 12.19364 44.28064 34876 ft 462 kts 86°
2026-05-06 06:18 12.19797 44.34615 34878 ft 462 kts 86°
2026-05-06 06:18 12.20235 44.41127 34877 ft 462 kts 86°
2026-05-06 06:19 12.20674 44.47677 34875 ft 462 kts 86°
2026-05-06 06:19 12.21109 44.54223 34875 ft 461 kts 86°
2026-05-06 06:20 12.21543 44.60768 34872 ft 461 kts 86°
2026-05-06 06:20 12.21974 44.67305 34874 ft 461 kts 86°
2026-05-06 06:21 12.22404 44.73855 34874 ft 461 kts 86°
2026-05-06 06:21 12.22829 44.80340 34871 ft 460 kts 86°
2026-05-06 06:22 12.23254 44.86864 34873 ft 460 kts 86°
2026-05-06 06:22 12.23679 44.93390 34871 ft 460 kts 86°
2026-05-06 06:23 12.24101 44.99910 34872 ft 460 kts 86°
2026-05-06 06:23 12.24522 45.06429 34865 ft 459 kts 86°
2026-05-06 06:24 12.24940 45.12944 34863 ft 459 kts 86°
2026-05-06 06:24 12.25358 45.19460 34860 ft 459 kts 86°
2026-05-06 06:25 12.25773 45.25973 34863 ft 459 kts 86°
2026-05-06 06:26 12.26393 45.35732 34861 ft 459 kts 86°
2026-05-06 06:26 12.26814 45.42239 34860 ft 459 kts 86°
2026-05-06 06:27 12.27262 45.48704 34861 ft 458 kts 86°
2026-05-06 06:27 12.27716 45.55202 34861 ft 458 kts 86°
2026-05-06 06:28 12.28166 45.61711 34860 ft 458 kts 86°
2026-05-06 06:28 12.28611 45.68211 34856 ft 458 kts 86°
2026-05-06 06:29 12.29054 45.74718 34858 ft 458 kts 86°
2026-05-06 06:29 12.29495 45.81206 34857 ft 458 kts 86°
2026-05-06 06:30 12.29935 45.87706 34863 ft 458 kts 86°
2026-05-06 06:30 12.30373 45.94201 34862 ft 458 kts 86°
2026-05-06 06:31 12.30805 46.00643 34862 ft 458 kts 86°
2026-05-06 06:31 12.31240 46.07137 34863 ft 458 kts 86°
2026-05-06 06:32 12.31673 46.13625 34864 ft 458 kts 86°
2026-05-06 06:32 12.32106 46.20126 34865 ft 458 kts 86°
2026-05-06 06:33 12.32537 46.26634 34865 ft 458 kts 86°
2026-05-06 06:33 12.32966 46.33134 34864 ft 458 kts 86°
2026-05-06 06:34 12.33394 46.39642 34863 ft 459 kts 86°
2026-05-06 06:34 12.33821 46.46153 34863 ft 459 kts 86°
2026-05-06 06:35 12.34243 46.52628 34863 ft 459 kts 87°
2026-05-06 06:35 12.34667 46.59141 34864 ft 459 kts 87°
2026-05-06 06:36 12.35090 46.65661 34863 ft 459 kts 87°
2026-05-06 06:36 12.35511 46.72177 34863 ft 459 kts 87°
2026-05-06 06:37 12.35929 46.78685 34863 ft 459 kts 87°
2026-05-06 06:37 12.36347 46.85195 34865 ft 459 kts 87°
2026-05-06 06:38 12.36762 46.91704 34864 ft 458 kts 87°
2026-05-06 06:38 12.37176 46.98208 34864 ft 458 kts 87°
2026-05-06 06:39 12.37588 47.04712 34862 ft 458 kts 87°
2026-05-06 06:39 12.38005 47.11215 34864 ft 458 kts 87°
2026-05-06 06:40 12.38420 47.17671 34864 ft 458 kts 87°
2026-05-06 06:40 12.38836 47.24176 34864 ft 458 kts 87°
2026-05-06 06:41 12.39249 47.30676 34868 ft 458 kts 87°
2026-05-06 06:41 12.39661 47.37178 34866 ft 458 kts 87°
2026-05-06 06:42 12.40072 47.43682 34868 ft 458 kts 87°
2026-05-06 06:42 12.41252 47.50077 34869 ft 460 kts 71°
2026-05-06 06:43 12.44076 47.55945 34871 ft 461 kts 62°
2026-05-06 06:43 12.47262 47.61657 34866 ft 462 kts 61°
2026-05-06 06:44 12.50426 47.67370 34869 ft 462 kts 62°
2026-05-06 06:44 12.53561 47.73113 34862 ft 462 kts 62°
2026-05-06 06:45 12.56659 47.78825 34865 ft 462 kts 62°
2026-05-06 06:45 12.59774 47.84576 34868 ft 462 kts 62°
2026-05-06 06:46 12.62888 47.90328 34867 ft 462 kts 62°
2026-05-06 06:46 12.66001 47.96079 34866 ft 462 kts 62°
2026-05-06 06:47 12.69113 48.01831 34869 ft 462 kts 62°
2026-05-06 06:47 12.72224 48.07585 34869 ft 461 kts 62°
2026-05-06 06:48 12.75329 48.13333 34868 ft 461 kts 62°
2026-05-06 06:48 12.78412 48.19042 34867 ft 461 kts 62°
2026-05-06 06:49 12.81513 48.24790 34867 ft 461 kts 62°
2026-05-06 06:49 12.84612 48.30538 34869 ft 461 kts 62°
2026-05-06 06:50 12.87710 48.36286 34870 ft 461 kts 62°
2026-05-06 06:50 12.90809 48.42040 34868 ft 461 kts 62°
2026-05-06 06:51 12.93905 48.47793 34865 ft 461 kts 62°
2026-05-06 06:51 12.97002 48.53551 34865 ft 461 kts 62°
2026-05-06 06:52 13.00097 48.59311 34867 ft 461 kts 62°
2026-05-06 06:52 13.03194 48.65077 34866 ft 462 kts 62°
2026-05-06 06:53 13.06291 48.70847 34867 ft 462 kts 63°
2026-05-06 06:53 13.09386 48.76616 34867 ft 462 kts 63°
2026-05-06 06:54 13.12465 48.82360 34868 ft 462 kts 63°
2026-05-06 06:54 13.15563 48.88144 34867 ft 462 kts 63°
2026-05-06 06:55 13.18660 48.93930 34869 ft 463 kts 63°
2026-05-06 06:55 13.21758 48.99722 34868 ft 463 kts 63°
2026-05-06 06:56 13.24856 49.05517 34867 ft 463 kts 63°
2026-05-06 06:56 13.27953 49.11315 34870 ft 463 kts 63°
2026-05-06 06:57 13.31047 49.17111 34872 ft 463 kts 63°
2026-05-06 06:57 13.34154 49.22901 34872 ft 463 kts 63°
2026-05-06 06:58 13.37265 49.28643 34871 ft 463 kts 63°
2026-05-06 06:58 13.40414 49.34458 34871 ft 463 kts 63°
2026-05-06 06:59 13.43543 49.40247 34872 ft 463 kts 63°
2026-05-06 06:59 13.46639 49.45985 34871 ft 463 kts 63°
2026-05-06 07:00 13.49761 49.51776 34871 ft 463 kts 63°
2026-05-06 07:00 13.52880 49.57562 34871 ft 463 kts 63°
2026-05-06 07:01 13.55470 49.62373 34871 ft 463 kts 63°
2026-05-06 07:01 13.58585 49.68161 34874 ft 462 kts 63°
2026-05-06 07:02 13.61697 49.73948 34875 ft 463 kts 63°
2026-05-06 07:02 13.64810 49.79740 34871 ft 463 kts 63°
2026-05-06 07:03 13.67920 49.85530 34871 ft 463 kts 63°
2026-05-06 07:03 13.71028 49.91322 34870 ft 462 kts 63°
2026-05-06 07:04 13.74117 49.97083 34876 ft 462 kts 63°
2026-05-06 07:04 13.77223 50.02880 34874 ft 462 kts 63°
2026-05-06 07:05 13.80332 50.08672 34872 ft 462 kts 63°
2026-05-06 07:05 13.83462 50.14453 34875 ft 462 kts 63°
2026-05-06 07:06 13.86597 50.20239 34876 ft 462 kts 63°
2026-05-06 07:06 13.89722 50.26017 34879 ft 463 kts 63°
2026-05-06 07:07 13.92850 50.31811 34875 ft 463 kts 63°
2026-05-06 07:07 13.95975 50.37603 34878 ft 463 kts 63°
2026-05-06 07:08 13.99096 50.43392 34875 ft 463 kts 63°
2026-05-06 07:08 14.02201 50.49155 34875 ft 463 kts 63°
2026-05-06 07:09 14.05322 50.54952 34875 ft 463 kts 63°
2026-05-06 07:09 14.08442 50.60752 34874 ft 463 kts 63°
2026-05-06 07:10 14.11539 50.66561 34875 ft 462 kts 64°
2026-05-06 07:10 14.14354 50.72505 34875 ft 461 kts 66°
2026-05-06 07:11 14.17069 50.78497 34877 ft 461 kts 67°
2026-05-06 07:11 14.19798 50.84480 34877 ft 461 kts 66°
2026-05-06 07:12 14.22552 50.90463 34881 ft 461 kts 66°
2026-05-06 07:12 14.25308 50.96434 34876 ft 461 kts 66°
2026-05-06 07:13 14.28061 51.02398 34880 ft 461 kts 66°
2026-05-06 07:13 14.30796 51.08333 34879 ft 461 kts 66°
2026-05-06 07:14 14.33546 51.14305 34880 ft 461 kts 66°
2026-05-06 07:14 14.36293 51.20276 34882 ft 461 kts 66°
2026-05-06 07:15 14.39040 51.26253 34880 ft 461 kts 66°
2026-05-06 07:15 14.41785 51.32230 34880 ft 461 kts 66°
2026-05-06 07:16 14.44525 51.38200 34881 ft 461 kts 66°
2026-05-06 07:16 14.47266 51.44177 34878 ft 461 kts 66°
2026-05-06 07:17 14.49988 51.50117 34880 ft 461 kts 66°
2026-05-06 07:17 14.52742 51.56132 34882 ft 461 kts 66°
2026-05-06 07:18 14.55478 51.62114 34879 ft 461 kts 66°
2026-05-06 07:18 14.58197 51.68061 34880 ft 461 kts 66°
2026-05-06 07:19 14.60929 51.74044 34880 ft 461 kts 66°
2026-05-06 07:19 14.63664 51.80038 34878 ft 461 kts 66°
2026-05-06 07:20 14.66399 51.86036 34880 ft 461 kts 66°
2026-05-06 07:20 14.69151 51.92016 34880 ft 461 kts 66°
2026-05-06 07:21 14.71930 51.98002 34884 ft 462 kts 66°
2026-05-06 07:21 14.74696 52.03974 34884 ft 462 kts 66°
2026-05-06 07:22 14.77464 52.09964 34882 ft 462 kts 66°
2026-05-06 07:22 14.80230 52.15958 34880 ft 462 kts 66°
2026-05-06 07:23 14.82992 52.21948 34878 ft 462 kts 66°
2026-05-06 07:23 14.85758 52.27952 34880 ft 462 kts 66°
2026-05-06 07:24 14.88506 52.33957 34882 ft 462 kts 66°
2026-05-06 07:24 14.91204 52.39943 34879 ft 462 kts 66°
2026-05-06 07:25 14.93915 52.45971 34880 ft 463 kts 66°
2026-05-06 07:25 14.96632 52.52007 34882 ft 463 kts 66°
2026-05-06 07:26 14.99350 52.58042 34880 ft 463 kts 66°
2026-05-06 07:26 15.02067 52.64082 34879 ft 463 kts 66°
2026-05-06 07:27 15.04784 52.70127 34881 ft 463 kts 66°
2026-05-06 07:27 15.07505 52.76184 34884 ft 463 kts 66°
2026-05-06 07:28 15.10201 52.82191 34883 ft 464 kts 66°
2026-05-06 07:28 15.14273 52.91275 34882 ft 464 kts 66°
2026-05-06 07:29 15.16906 52.97156 35046 ft 469 kts 66°
2026-05-06 07:29 15.18276 53.00217 35333 ft 467 kts 66°
2026-05-06 07:29 15.19637 53.03259 35641 ft 465 kts 66°
2026-05-06 07:30 15.20992 53.06289 35896 ft 464 kts 66°
2026-05-06 07:30 15.22348 53.09323 36124 ft 464 kts 66°
2026-05-06 07:30 15.23703 53.12355 36355 ft 463 kts 66°
2026-05-06 07:30 15.25055 53.15382 36619 ft 462 kts 66°
2026-05-06 07:31 15.26400 53.18395 36861 ft 461 kts 66°
2026-05-06 07:31 15.27750 53.21423 36867 ft 464 kts 66°
2026-05-06 07:31 15.30455 53.27489 36874 ft 463 kts 66°
2026-05-06 07:32 15.33143 53.33522 36879 ft 460 kts 66°
2026-05-06 07:32 15.35813 53.39521 36880 ft 457 kts 66°
2026-05-06 07:33 15.38451 53.45455 36884 ft 456 kts 66°
2026-05-06 07:33 15.41102 53.51422 36882 ft 455 kts 66°
2026-05-06 07:34 15.44600 53.56884 36888 ft 459 kts 47°
2026-05-06 07:34 15.46966 53.59102 36875 ft 462 kts 37°
2026-05-06 07:35 15.47710 53.59644 36873 ft 462 kts 34°
2026-05-06 07:35 15.53163 53.63220 36884 ft 465 kts 33°
2026-05-06 07:36 15.58657 53.66785 36885 ft 467 kts 33°
2026-05-06 07:36 15.64146 53.70417 36882 ft 469 kts 33°
2026-05-06 07:37 15.69640 53.74087 36881 ft 471 kts 34°
2026-05-06 07:37 15.75119 53.77751 36881 ft 472 kts 34°
2026-05-06 07:38 15.80644 53.81444 36881 ft 472 kts 34°
2026-05-06 07:38 15.86161 53.85134 36878 ft 471 kts 34°
2026-05-06 07:39 15.91677 53.88805 36881 ft 470 kts 33°
2026-05-06 07:39 15.97198 53.92442 36881 ft 469 kts 33°
2026-05-06 07:40 16.02696 53.96065 36881 ft 467 kts 33°
2026-05-06 07:40 16.08178 53.99685 36874 ft 466 kts 33°
2026-05-06 07:41 16.13641 54.03299 36872 ft 465 kts 33°
2026-05-06 07:41 16.19097 54.06911 36872 ft 464 kts 33°
2026-05-06 07:42 16.24507 54.10494 36871 ft 464 kts 33°
2026-05-06 07:42 16.29954 54.14105 36871 ft 464 kts 33°
2026-05-06 07:43 16.35402 54.17717 36869 ft 465 kts 33°
2026-05-06 07:43 16.40856 54.21337 36872 ft 465 kts 33°
2026-05-06 07:44 16.46325 54.24970 36869 ft 466 kts 33°
2026-05-06 07:44 16.51797 54.28606 36864 ft 467 kts 33°
2026-05-06 07:45 16.57278 54.32251 36864 ft 467 kts 33°
2026-05-06 07:45 16.62766 54.35903 36861 ft 468 kts 33°
2026-05-06 07:46 16.68222 54.39537 36859 ft 468 kts 33°
2026-05-06 07:46 16.73713 54.43196 36858 ft 468 kts 33°
2026-05-06 07:47 16.79201 54.46856 36862 ft 468 kts 33°
2026-05-06 07:47 16.84691 54.50521 36869 ft 468 kts 33°
2026-05-06 07:48 16.90182 54.54187 36876 ft 468 kts 33°
2026-05-06 07:48 16.95671 54.57847 36879 ft 468 kts 33°
2026-05-06 07:49 17.01146 54.61501 36886 ft 467 kts 33°
2026-05-06 07:49 17.06592 54.65139 36889 ft 467 kts 33°
2026-05-06 07:50 17.12069 54.68801 36879 ft 467 kts 33°
2026-05-06 07:50 17.17542 54.72463 36884 ft 467 kts 33°
2026-05-06 07:51 17.23009 54.76124 36883 ft 467 kts 33°
2026-05-06 07:51 17.28470 54.79808 36882 ft 466 kts 34°
2026-05-06 07:52 17.33761 54.83744 36880 ft 466 kts 37°
2026-05-06 07:52 17.38992 54.87753 36871 ft 466 kts 37°
2026-05-06 07:53 17.44241 54.91734 36875 ft 466 kts 36°
2026-05-06 07:53 17.49469 54.95667 36868 ft 466 kts 36°
2026-05-06 07:54 17.54741 54.99628 36864 ft 466 kts 36°
2026-05-06 07:54 17.60005 55.03589 36859 ft 466 kts 36°
2026-05-06 07:55 17.65267 55.07552 36859 ft 465 kts 36°
2026-05-06 07:55 17.70524 55.11516 36852 ft 465 kts 36°
2026-05-06 07:56 17.75777 55.15479 36855 ft 465 kts 36°
2026-05-06 07:56 17.80139 55.18775 36856 ft 465 kts 36°
2026-05-06 07:57 17.85385 55.22749 36856 ft 465 kts 36°
2026-05-06 07:57 17.90631 55.26727 36856 ft 465 kts 36°
2026-05-06 07:58 17.95881 55.30711 36853 ft 465 kts 36°
2026-05-06 07:58 18.01982 55.35344 36857 ft 465 kts 36°
2026-05-06 07:59 18.06378 55.38684 36860 ft 466 kts 36°
2026-05-06 07:59 18.11682 55.42593 36861 ft 466 kts 33°
2026-05-06 08:00 18.17146 55.46255 36862 ft 466 kts 32°
2026-05-06 08:00 18.22609 55.49921 36850 ft 466 kts 33°
2026-05-06 08:01 18.28051 55.53633 36860 ft 466 kts 33°
2026-05-06 08:01 18.33451 55.57328 36863 ft 466 kts 33°
2026-05-06 08:02 18.38892 55.61055 36852 ft 466 kts 33°
2026-05-06 08:02 18.44327 55.64786 36854 ft 466 kts 33°
2026-05-06 08:03 18.49759 55.68518 36852 ft 466 kts 33°
2026-05-06 08:03 18.55197 55.72257 36852 ft 466 kts 33°
2026-05-06 08:04 18.60628 55.75994 36852 ft 466 kts 33°
2026-05-06 08:04 18.66060 55.79735 36850 ft 466 kts 33°
2026-05-06 08:05 18.71487 55.83475 36847 ft 466 kts 33°
2026-05-06 08:05 18.76878 55.87193 36849 ft 466 kts 33°
2026-05-06 08:06 18.82301 55.90937 36851 ft 466 kts 33°
2026-05-06 08:06 18.87733 55.94690 36847 ft 466 kts 33°
2026-05-06 08:07 18.93161 55.98442 36849 ft 466 kts 33°
2026-05-06 08:07 18.98873 56.01660 36840 ft 466 kts 18°
2026-05-06 08:08 19.05125 56.03418 36846 ft 465 kts 13°
2026-05-06 08:08 19.11419 56.05020 36844 ft 465 kts 13°
2026-05-06 08:09 19.17703 56.06663 36848 ft 465 kts 13°
2026-05-06 08:09 19.23974 56.08342 36846 ft 465 kts 13°
2026-05-06 08:10 19.30203 56.10022 36846 ft 465 kts 13°
2026-05-06 08:10 19.36483 56.11717 36848 ft 465 kts 13°
2026-05-06 08:11 19.42760 56.13411 36844 ft 465 kts 13°
2026-05-06 08:11 19.49034 56.15105 36849 ft 465 kts 13°
2026-05-06 08:12 19.55312 56.16800 36843 ft 465 kts 13°
2026-05-06 08:12 19.61583 56.18496 36847 ft 465 kts 13°
2026-05-06 08:13 19.67857 56.20194 36845 ft 465 kts 13°
2026-05-06 08:13 19.74098 56.21884 36843 ft 466 kts 13°
2026-05-06 08:14 19.80375 56.23586 36844 ft 466 kts 13°
2026-05-06 08:14 19.86657 56.25290 36843 ft 466 kts 13°
2026-05-06 08:15 19.92938 56.26995 36844 ft 466 kts 13°
2026-05-06 08:15 19.99140 56.29030 36838 ft 468 kts 23°
2026-05-06 08:16 20.05026 56.31977 36848 ft 469 kts 24°
2026-05-06 08:16 20.10919 56.35002 36845 ft 469 kts 24°
2026-05-06 08:17 20.16815 56.37971 36849 ft 469 kts 24°
2026-05-06 08:17 20.22724 56.40917 36847 ft 469 kts 24°
2026-05-06 08:18 20.28597 56.43847 36846 ft 469 kts 24°
2026-05-06 08:18 20.34504 56.46800 36845 ft 469 kts 24°
2026-05-06 08:19 20.40416 56.49755 36848 ft 469 kts 24°
2026-05-06 08:19 20.46322 56.52698 36844 ft 468 kts 24°
2026-05-06 08:20 20.52229 56.55642 36845 ft 468 kts 24°
2026-05-06 08:20 20.58127 56.58586 36848 ft 468 kts 24°
2026-05-06 08:21 20.64021 56.61532 36851 ft 468 kts 24°
2026-05-06 08:21 20.69910 56.64478 36854 ft 468 kts 24°
2026-05-06 08:22 20.75806 56.67430 36854 ft 468 kts 24°
2026-05-06 08:22 20.81698 56.70383 36857 ft 467 kts 24°
2026-05-06 08:23 20.87546 56.73316 36858 ft 468 kts 24°
2026-05-06 08:23 20.93433 56.76272 36861 ft 468 kts 24°
2026-05-06 08:24 20.99328 56.79237 36866 ft 468 kts 24°
2026-05-06 08:24 21.05222 56.82205 36869 ft 468 kts 23°
2026-05-06 08:25 21.11125 56.85180 36867 ft 469 kts 23°
2026-05-06 08:25 21.17025 56.88157 36872 ft 469 kts 23°
2026-05-06 08:26 21.22936 56.91142 36873 ft 469 kts 23°
2026-05-06 08:26 21.28842 56.94127 36877 ft 470 kts 24°
2026-05-06 08:27 21.34750 56.97124 36882 ft 470 kts 24°
2026-05-06 08:27 21.40661 57.00129 36885 ft 470 kts 23°
2026-05-06 08:28 21.46523 57.03111 36886 ft 470 kts 23°
2026-05-06 08:28 21.52428 57.06118 36896 ft 470 kts 23°
2026-05-06 08:29 21.58333 57.09127 36892 ft 469 kts 23°
2026-05-06 08:29 21.64234 57.12131 36895 ft 469 kts 23°
2026-05-06 08:30 21.70145 57.15110 36903 ft 469 kts 23°
2026-05-06 08:30 21.76053 57.18102 36904 ft 469 kts 23°
2026-05-06 08:31 21.81954 57.21121 36903 ft 470 kts 23°
2026-05-06 08:31 21.87859 57.24148 36906 ft 470 kts 23°
2026-05-06 08:32 21.93762 57.27173 36912 ft 470 kts 23°
2026-05-06 08:32 21.99655 57.30195 36914 ft 470 kts 23°
2026-05-06 08:33 22.05560 57.33224 36917 ft 470 kts 23°
2026-05-06 08:33 22.11426 57.36237 36925 ft 470 kts 23°
2026-05-06 08:34 22.20286 57.40794 36928 ft 470 kts 23°
2026-05-06 08:35 22.26191 57.43835 36932 ft 470 kts 23°
2026-05-06 08:35 22.32095 57.46877 36938 ft 471 kts 23°
2026-05-06 08:36 22.38008 57.49920 36939 ft 471 kts 23°
2026-05-06 08:36 22.43928 57.52964 36943 ft 471 kts 23°
2026-05-06 08:37 22.49846 57.56010 36939 ft 471 kts 23°
2026-05-06 08:37 22.55774 57.59066 36937 ft 471 kts 23°
2026-05-06 08:38 22.61695 57.62121 36934 ft 472 kts 22°
2026-05-06 08:38 22.67614 57.65179 36932 ft 472 kts 22°
2026-05-06 08:39 22.73538 57.68241 36936 ft 472 kts 22°
2026-05-06 08:39 22.79426 57.71289 36936 ft 472 kts 22°
2026-05-06 08:40 22.85353 57.74360 36931 ft 472 kts 22°
2026-05-06 08:40 22.91185 57.77645 36932 ft 475 kts 30°
2026-05-06 08:41 22.96682 57.81637 36928 ft 476 kts 31°
2026-05-06 08:41 23.02202 57.85599 36919 ft 475 kts 30°
2026-05-06 08:42 23.07745 57.89515 36913 ft 475 kts 30°
2026-05-06 08:42 23.13282 57.93446 36898 ft 476 kts 30°
2026-05-06 08:43 23.18820 57.97384 36886 ft 476 kts 30°
2026-05-06 08:43 23.23915 58.01977 36883 ft 481 kts 48°
2026-05-06 08:44 23.27364 58.08209 36876 ft 484 kts 66°
2026-05-06 08:44 23.29865 58.14965 36856 ft 485 kts 67°
2026-05-06 08:45 23.32379 58.21775 36841 ft 485 kts 66°
2026-05-06 08:45 23.34958 58.28559 36845 ft 485 kts 66°
2026-05-06 08:46 23.37555 58.35346 36836 ft 485 kts 66°
2026-05-06 08:46 23.40147 58.42141 36821 ft 486 kts 66°
2026-05-06 08:47 23.42701 58.48958 36827 ft 486 kts 67°
2026-05-06 08:47 23.45201 58.55796 36834 ft 486 kts 67°
2026-05-06 08:48 23.47700 58.62645 36819 ft 487 kts 67°
2026-05-06 08:48 23.50194 58.69465 36816 ft 487 kts 67°
2026-05-06 08:49 23.52700 58.76320 36819 ft 487 kts 67°
2026-05-06 08:49 23.55202 58.83173 36819 ft 487 kts 67°
2026-05-06 08:50 23.57703 58.90035 36822 ft 487 kts 67°
2026-05-06 08:50 23.60195 58.96885 36822 ft 486 kts 67°
2026-05-06 08:51 23.62688 59.03746 36824 ft 486 kts 67°
2026-05-06 08:51 23.64757 59.09450 36832 ft 486 kts 67°
2026-05-06 08:52 23.67240 59.16308 36827 ft 486 kts 67°
2026-05-06 08:52 23.70126 59.24288 36827 ft 486 kts 67°
2026-05-06 08:53 23.72604 59.31155 36832 ft 486 kts 67°
2026-05-06 08:53 23.75080 59.38024 36834 ft 487 kts 67°
2026-05-06 08:54 23.77137 59.43743 36832 ft 487 kts 67°
2026-05-06 08:54 23.79552 59.50645 36832 ft 488 kts 71°
2026-05-06 08:55 23.80918 59.57915 36836 ft 489 kts 80°
2026-05-06 08:55 23.82003 59.65241 36834 ft 489 kts 79°
2026-05-06 08:56 23.83159 59.72566 36832 ft 489 kts 79°
2026-05-06 08:56 23.84343 59.79862 36838 ft 490 kts 79°
2026-05-06 08:57 23.85509 59.87196 36836 ft 490 kts 79°
2026-05-06 08:57 23.86660 59.94539 36833 ft 490 kts 79°
2026-05-06 08:58 23.87808 60.01881 36838 ft 490 kts 79°
2026-05-06 08:58 23.88957 60.09230 36842 ft 491 kts 79°
2026-05-06 08:59 23.90103 60.16582 36843 ft 491 kts 79°
2026-05-06 08:59 23.91245 60.23936 36843 ft 491 kts 79°
2026-05-06 09:00 23.92384 60.31285 36842 ft 490 kts 79°
2026-05-06 09:00 23.93519 60.38641 36847 ft 490 kts 79°
2026-05-06 09:01 23.94649 60.45982 36839 ft 490 kts 79°
2026-05-06 09:01 23.95776 60.53333 36845 ft 490 kts 79°
2026-05-06 09:02 23.96899 60.60681 36845 ft 490 kts 79°
2026-05-06 09:02 23.98012 60.67988 36845 ft 490 kts 79°
2026-05-06 09:03 23.99129 60.75342 36820 ft 491 kts 79°
2026-05-06 09:03 24.00243 60.82699 36834 ft 491 kts 79°
2026-05-06 09:04 24.01354 60.90065 36850 ft 491 kts 79°
2026-05-06 09:04 24.02462 60.97435 36849 ft 492 kts 79°
2026-05-06 09:05 24.03568 61.04820 36849 ft 492 kts 79°
2026-05-06 09:05 24.04672 61.12209 36848 ft 492 kts 79°
2026-05-06 09:06 24.05772 61.19607 36854 ft 492 kts 79°
2026-05-06 09:06 24.06868 61.26996 36856 ft 492 kts 79°
2026-05-06 09:07 24.07962 61.34393 36847 ft 492 kts 79°
2026-05-06 09:07 24.09048 61.41730 36852 ft 492 kts 79°
2026-05-06 09:08 24.10139 61.49110 36853 ft 491 kts 79°
2026-05-06 09:08 24.11225 61.56493 36848 ft 491 kts 79°
2026-05-06 09:09 24.12307 61.63874 36849 ft 491 kts 79°
2026-05-06 09:09 24.13387 61.71263 36852 ft 491 kts 79°
2026-05-06 09:10 24.14461 61.78640 36855 ft 491 kts 79°
2026-05-06 09:10 24.15500 61.86037 36851 ft 491 kts 80°
2026-05-06 09:11 24.16495 61.93429 36851 ft 491 kts 80°
2026-05-06 09:11 24.17488 62.00830 36853 ft 491 kts 80°
2026-05-06 09:12 24.18479 62.08199 36852 ft 492 kts 80°
2026-05-06 09:12 24.19474 62.15607 36852 ft 492 kts 80°
2026-05-06 09:13 24.20467 62.23019 36853 ft 492 kts 80°
2026-05-06 09:13 24.21456 62.30433 36852 ft 492 kts 80°
2026-05-06 09:14 24.22443 62.37858 36849 ft 492 kts 80°
2026-05-06 09:14 24.23426 62.45286 36853 ft 493 kts 80°
2026-05-06 09:15 24.24406 62.52716 36849 ft 493 kts 80°
2026-05-06 09:15 24.25383 62.60149 36848 ft 493 kts 80°
2026-05-06 09:16 24.26350 62.67541 36847 ft 493 kts 80°
2026-05-06 09:16 24.27321 62.74985 36845 ft 493 kts 80°
2026-05-06 09:17 24.28288 62.82432 36847 ft 494 kts 81°
2026-05-06 09:17 24.29252 62.89887 36845 ft 494 kts 80°
2026-05-06 09:18 24.30213 62.97345 36848 ft 494 kts 81°
2026-05-06 09:18 24.31169 63.04800 36844 ft 494 kts 81°
2026-05-06 09:19 24.32122 63.12253 36849 ft 494 kts 81°
2026-05-06 09:19 24.33064 63.19653 36847 ft 494 kts 81°
2026-05-06 09:20 24.34011 63.27117 36848 ft 494 kts 81°
2026-05-06 09:20 24.34953 63.34573 36842 ft 494 kts 81°
2026-05-06 09:21 24.35891 63.42034 36843 ft 494 kts 81°
2026-05-06 09:21 24.36826 63.49493 36843 ft 494 kts 81°
2026-05-06 09:22 24.37758 63.56963 36844 ft 494 kts 81°
2026-05-06 09:22 24.38685 63.64425 36842 ft 494 kts 81°
2026-05-06 09:23 24.39610 63.71896 36840 ft 494 kts 81°
2026-05-06 09:23 24.40531 63.79371 36842 ft 494 kts 81°
2026-05-06 09:24 24.41442 63.86793 36842 ft 495 kts 81°
2026-05-06 09:24 24.42357 63.94278 36841 ft 495 kts 81°
2026-05-06 09:25 24.43267 64.01751 36841 ft 495 kts 81°
2026-05-06 09:25 24.44175 64.09240 36844 ft 495 kts 81°
2026-05-06 09:26 24.45080 64.16736 36838 ft 495 kts 81°
2026-05-06 09:26 24.45980 64.24227 36843 ft 495 kts 81°
2026-05-06 09:27 24.46877 64.31723 36836 ft 496 kts 81°
2026-05-06 09:27 24.47772 64.39231 36843 ft 496 kts 81°
2026-05-06 09:28 24.48663 64.46739 36841 ft 496 kts 81°
2026-05-06 09:28 24.49549 64.54243 36843 ft 496 kts 81°
2026-05-06 09:29 24.50427 64.61705 36838 ft 496 kts 81°
2026-05-06 09:29 24.51307 64.69216 36841 ft 496 kts 81°
2026-05-06 09:30 24.52183 64.76724 36842 ft 496 kts 81°
2026-05-06 09:30 24.53050 64.84247 36841 ft 496 kts 82°
2026-05-06 09:31 24.53697 64.91801 36844 ft 497 kts 84°
2026-05-06 09:31 24.54234 64.99368 36840 ft 497 kts 84°
2026-05-06 09:32 24.54789 65.06934 36840 ft 497 kts 83°
2026-05-06 09:32 24.55367 65.14495 36840 ft 497 kts 83°
2026-05-06 09:33 24.55952 65.22065 36491 ft 503 kts 83°
2026-05-06 09:33 24.56250 65.25929 35786 ft 507 kts 83°
2026-05-06 09:33 24.56545 65.29786 35075 ft 508 kts 83°
2026-05-06 09:33 24.56840 65.33663 34385 ft 510 kts 83°
2026-05-06 09:34 24.57136 65.37560 33627 ft 513 kts 83°
2026-05-06 09:34 24.57430 65.41455 32985 ft 511 kts 83°
2026-05-06 09:34 24.57720 65.45328 32456 ft 506 kts 82°
2026-05-06 09:34 24.58006 65.49173 31926 ft 502 kts 82°
2026-05-06 09:35 24.58289 65.52976 31415 ft 498 kts 82°
2026-05-06 09:35 24.58567 65.56708 30899 ft 495 kts 82°
2026-05-06 09:35 24.58846 65.60467 30376 ft 491 kts 82°
2026-05-06 09:35 24.59121 65.64190 29873 ft 488 kts 82°
2026-05-06 09:36 24.59395 65.67899 29283 ft 484 kts 82°
2026-05-06 09:36 24.59664 65.71562 28737 ft 479 kts 82°
2026-05-06 09:36 24.59930 65.75196 28208 ft 474 kts 82°
2026-05-06 09:36 24.60191 65.78783 27706 ft 469 kts 82°
2026-05-06 09:37 24.60450 65.82344 27193 ft 464 kts 82°
2026-05-06 09:37 24.60706 65.85868 26692 ft 460 kts 82°
2026-05-06 09:37 24.60957 65.89348 26200 ft 456 kts 82°
2026-05-06 09:37 24.61207 65.92807 25705 ft 452 kts 82°
2026-05-06 09:38 24.61453 65.96233 25193 ft 449 kts 82°
2026-05-06 09:38 24.61698 65.99643 24690 ft 445 kts 82°
2026-05-06 09:38 24.61939 66.03023 24196 ft 442 kts 82°
2026-05-06 09:38 24.62179 66.06392 23701 ft 439 kts 82°
2026-05-06 09:39 24.62415 66.09720 23176 ft 436 kts 82°
2026-05-06 09:39 24.62650 66.13027 22622 ft 432 kts 82°
2026-05-06 09:39 24.62878 66.16264 22121 ft 427 kts 82°
2026-05-06 09:39 24.63104 66.19496 21632 ft 422 kts 82°
2026-05-06 09:40 24.63328 66.22693 21151 ft 417 kts 82°
2026-05-06 09:40 24.63549 66.25852 20679 ft 413 kts 82°
2026-05-06 09:40 24.63982 66.32080 19748 ft 404 kts 83°
2026-05-06 09:41 24.64194 66.35141 19288 ft 399 kts 83°
2026-05-06 09:41 24.64404 66.38172 18823 ft 396 kts 83°
2026-05-06 09:41 24.64611 66.41175 18363 ft 392 kts 83°
2026-05-06 09:41 24.64815 66.44153 17874 ft 389 kts 83°
2026-05-06 09:42 24.65016 66.47093 17381 ft 384 kts 83°
2026-05-06 09:42 24.65216 66.50009 16904 ft 380 kts 83°
2026-05-06 09:42 24.65411 66.52887 16446 ft 376 kts 83°
2026-05-06 09:42 24.65605 66.55736 15997 ft 371 kts 83°
2026-05-06 09:43 24.65795 66.58549 15561 ft 367 kts 82°
2026-05-06 09:43 24.65983 66.61337 15125 ft 364 kts 82°
2026-05-06 09:43 24.66169 66.64097 14693 ft 360 kts 82°
2026-05-06 09:43 24.66353 66.66825 14275 ft 357 kts 82°
2026-05-06 09:44 24.66534 66.69535 13851 ft 354 kts 82°
2026-05-06 09:44 24.66714 66.72214 13409 ft 351 kts 82°
2026-05-06 09:44 24.66890 66.74842 12955 ft 348 kts 82°
2026-05-06 09:44 24.67066 66.77480 12523 ft 344 kts 82°
2026-05-06 09:45 24.67240 66.80093 12106 ft 341 kts 82°
2026-05-06 09:45 24.67412 66.82680 11695 ft 338 kts 83°
2026-05-06 09:45 24.67582 66.85247 11289 ft 335 kts 83°
2026-05-06 09:45 24.67750 66.87793 10892 ft 333 kts 83°
2026-05-06 09:46 24.67917 66.90325 10490 ft 331 kts 83°
2026-05-06 09:46 24.68080 66.92818 10297 ft 322 kts 83°
2026-05-06 09:46 24.68237 66.95240 10144 ft 312 kts 83°
2026-05-06 09:46 24.68391 66.97587 10003 ft 303 kts 83°
2026-05-06 09:47 24.68539 66.99863 9877 ft 294 kts 83°
2026-05-06 09:47 24.68634 67.01344 9722 ft 292 kts 83°
2026-05-06 09:47 24.68864 67.04302 9298 ft 288 kts 76°
2026-05-06 09:47 24.69606 67.06286 9072 ft 277 kts 57°
2026-05-06 09:48 24.70249 67.07497 8873 ft 276 kts 56°
2026-05-06 09:48 24.71240 67.09302 8579 ft 275 kts 55°
2026-05-06 09:48 24.72230 67.11096 8281 ft 274 kts 56°
2026-05-06 09:48 24.73215 67.12888 7989 ft 273 kts 56°
2026-05-06 09:49 24.74196 67.14682 7690 ft 273 kts 56°
2026-05-06 09:49 24.75175 67.16479 7393 ft 274 kts 57°
2026-05-06 09:49 24.76151 67.18276 7093 ft 274 kts 57°
2026-05-06 09:49 24.77123 67.20074 6799 ft 274 kts 57°
2026-05-06 09:50 24.78099 67.21881 6490 ft 275 kts 58°
2026-05-06 09:50 24.79077 67.23693 6150 ft 276 kts 58°
2026-05-06 09:50 24.80056 67.25504 5854 ft 275 kts 58°
2026-05-06 09:50 24.81035 67.27320 5555 ft 276 kts 58°
2026-05-06 09:51 24.82014 67.29135 5252 ft 277 kts 58°
2026-05-06 09:51 24.82984 67.30937 4967 ft 277 kts 59°
2026-05-06 09:51 24.83966 67.32759 4679 ft 276 kts 59°
2026-05-06 09:51 24.84943 67.34574 4387 ft 276 kts 60°
2026-05-06 09:52 24.85914 67.36377 4243 ft 268 kts 60°
2026-05-06 09:52 24.86909 67.38065 4151 ft 258 kts 47°
2026-05-06 09:52 24.88348 67.39116 4046 ft 241 kts 14°
2026-05-06 09:52 24.89931 67.39353 3954 ft 223 kts 353°
2026-05-06 09:53 24.91406 67.39053 3860 ft 212 kts 342°
2026-05-06 09:53 24.92824 67.38630 3776 ft 211 kts 341°
2026-05-06 09:53 24.94188 67.38086 3658 ft 207 kts 322°
2026-05-06 09:53 24.95105 67.36922 3492 ft 200 kts 289°
2026-05-06 09:54 24.95360 67.35476 3293 ft 188 kts 261°
2026-05-06 09:54 24.95082 67.34121 3070 ft 178 kts 251°
2026-05-06 09:54 24.94760 67.32824 2807 ft 176 kts 252°
2026-05-06 09:54 24.94434 67.31517 2564 ft 173 kts 251°
2026-05-06 09:55 24.94120 67.30276 2352 ft 161 kts 252°
2026-05-06 09:55 24.93831 67.29139 2148 ft 151 kts 253°
2026-05-06 09:55 24.93553 67.28048 1964 ft 148 kts 254°
2026-05-06 09:55 24.93284 67.26983 1790 ft 144 kts 254°
2026-05-06 09:56 24.93025 67.25962 1627 ft 133 kts 253°
2026-05-06 09:56 24.92782 67.25005 1441 ft 128 kts 252°
2026-05-06 09:56 24.92525 67.23996 1304 ft 146 kts 252°
2026-05-06 09:56 24.92251 67.22913 1082 ft 144 kts 253°
2026-05-06 09:57 24.91995 67.21897 911 ft 131 kts 253°
2026-05-06 09:57 24.91753 67.20941 740 ft 131 kts 250°
2026-05-06 09:57 24.91478 67.19866 575 ft 157 kts 252°
2026-05-06 09:57 24.91467 67.19821 565 ft 157 kts 253°
2026-05-06 09:58 24.91329 67.19270 456 ft 155 kts 254°
2026-05-06 09:58 24.91058 67.18196 264 ft 142 kts 253°
2026-05-06 09:58 24.90805 67.17191 127 ft 128 kts 252°
2026-05-06 09:59 24.90681 67.16754 104 ft 114 kts 251°
2026-05-06 09:59 24.90568 67.16267 102 ft 70 kts 254°
2026-05-06 09:59 24.90483 67.15933 103 ft 36 kts 254°
2026-05-06 10:00 24.90436 67.15781 104 ft 13 kts 230°
2026-05-06 10:00 24.90373 67.15761 103 ft 7 kts 165°
2026-05-06 10:00 24.90354 67.15767 103 ft 4 kts 163°
2026-05-06 10:00 24.90319 67.15778 102 ft 7 kts 163°
2026-05-06 10:01 24.90268 67.15806 101 ft 7 kts 131°
2026-05-06 10:01 24.90261 67.15847 101 ft 5 kts 75°
2026-05-06 10:01 24.90265 67.15860 101 ft 5 kts 74°
2026-05-06 10:02 24.90265 67.15863 101 ft 5 kts 74°
2026-05-06 10:02 24.90274 67.15897 101 ft 5 kts 74°
2026-05-06 10:03 24.90284 67.15935 99 ft 5 kts 74°
2026-05-06 10:03 24.90293 67.15972 101 ft 5 kts 75°
2026-05-06 10:03 24.90302 67.16008 101 ft 5 kts 75°
2026-05-06 10:03 24.90311 67.16044 127 ft 5 kts 75°
2026-05-06 10:04 24.90320 67.16080 101 ft 5 kts 74°
2026-05-06 10:04 24.90330 67.16120 100 ft 7 kts 74°
2026-05-06 10:04 24.90349 67.16195 101 ft 13 kts 74°
2026-05-06 10:04 24.90381 67.16318 101 ft 20 kts 74°
2026-05-06 10:05 24.90421 67.16480 101 ft 22 kts 75°
2026-05-06 10:05 24.90458 67.16629 101 ft 13 kts 80°
2026-05-06 10:05 24.90438 67.16691 101 ft 6 kts 143°
2026-05-06 10:05 24.90396 67.16706 100 ft 6 kts 165°
2026-05-06 10:06 24.90353 67.16719 100 ft 6 kts 164°
2026-05-06 10:06 24.90312 67.16732 100 ft 6 kts 163°
2026-05-06 10:06 24.90271 67.16745 100 ft 6 kts 165°
2026-05-06 10:06 24.90239 67.16759 100 ft 4 kts 136°
2026-05-06 10:07 24.90234 67.16791 100 ft 4 kts 89°
2026-05-06 10:07 24.90235 67.16821 100 ft 3 kts 88°
2026-05-06 10:07 24.90235 67.16841 100 ft 1 kts 88°
2026-05-06 10:07 24.90235 67.16845 100 ft 0 kts 88°